TimeMST,TemperatureF,Dew PointF,Humidity,Sea Level PressureIn,VisibilityMPH,Wind Direction,Wind SpeedMPH,Gust SpeedMPH,PrecipitationIn,Events,Conditions,WindDirDegrees,DateUTC
12:56 AM,33.1,27.0,78,29.87,10.0,North,4.6,-,N/A,,Partly Cloudy,350,2012-11-30 07:56:00
1:56 AM,36.0,28.9,76,29.86,10.0,Calm,Calm,-,N/A,,Overcast,0,2012-11-30 08:56:00
2:56 AM,36.0,28.9,76,29.84,10.0,ESE,5.8,-,N/A,,Overcast,110,2012-11-30 09:56:00
3:56 AM,37.9,28.9,70,29.80,10.0,SSE,11.5,-,N/A,,Partly Cloudy,150,2012-11-30 10:56:00
4:56 AM,41.0,28.9,62,29.78,10.0,SSE,10.4,-,N/A,,Overcast,150,2012-11-30 11:56:00
5:56 AM,37.0,28.9,73,29.81,10.0,Calm,Calm,-,N/A,,Mostly Cloudy,0,2012-11-30 12:56:00
6:56 AM,42.1,28.9,60,29.77,10.0,Calm,Calm,-,N/A,,Overcast,0,2012-11-30 13:56:00
7:56 AM,37.0,28.9,73,29.78,10.0,East,9.2,-,N/A,,Partly Cloudy,100,2012-11-30 14:56:00
8:56 AM,48.0,30.9,52,29.71,10.0,SE,8.1,-,N/A,,Overcast,130,2012-11-30 15:56:00
9:56 AM,51.1,30.9,46,29.70,10.0,SSE,11.5,-,N/A,,Overcast,150,2012-11-30 16:56:00
10:56 AM,48.9,30.9,50,29.70,10.0,Calm,Calm,-,N/A,,Overcast,0,2012-11-30 17:56:00
11:56 AM,48.9,32.0,52,29.68,10.0,Variable,3.5,-,N/A,,Overcast,0,2012-11-30 18:56:00
12:28 PM,51.8,32.0,47,29.65,10.0,SSW,6.9,-,N/A,,Overcast,210,2012-11-30 19:28:00
12:56 PM,50.0,33.1,52,29.67,10.0,South,6.9,-,N/A,,Overcast,170,2012-11-30 19:56:00
1:56 PM,48.9,34.0,56,29.66,10.0,SSE,6.9,-,N/A,,Overcast,150,2012-11-30 20:56:00
2:56 PM,48.0,35.1,61,29.65,10.0,SE,8.1,-,N/A,,Scattered Clouds,130,2012-11-30 21:56:00
3:56 PM,46.9,34.0,61,29.68,10.0,East,10.4,-,N/A,,Overcast,100,2012-11-30 22:56:00
4:44 PM,46.4,33.8,62,29.69,10.0,WNW,19.6,26.5,N/A,,Overcast,300,2012-11-30 23:44:00
4:56 PM,45.0,35.1,68,29.70,10.0,WNW,17.3,-,N/A,,Overcast,300,2012-11-30 23:56:00
5:56 PM,44.1,33.1,65,29.72,10.0,WNW,4.6,-,0.00,,Overcast,300,2012-12-01 00:56:00
6:56 PM,46.9,33.1,59,29.71,10.0,Variable,3.5,-,N/A,,Overcast,0,2012-12-01 01:56:00
7:56 PM,46.9,33.1,59,29.75,10.0,SW,21.9,36.8,N/A,,Overcast,220,2012-12-01 02:56:00
8:56 PM,46.0,35.1,66,29.72,10.0,SW,9.2,-,0.01,,Overcast,220,2012-12-01 03:56:00
9:56 PM,42.1,37.0,82,29.72,10.0,SE,5.8,-,0.01,Rain,Light Rain,140,2012-12-01 04:56:00
10:56 PM,42.1,35.1,76,29.73,10.0,ENE,3.5,-,0.00,,Overcast,60,2012-12-01 05:56:00
11:56 PM,39.9,36.0,86,29.74,10.0,Calm,Calm,-,N/A,,Overcast,0,2012-12-01 06:56:00